Home > Time Zones > World Clock > Weather > Latvia > Riga > Past weeks

Flag for Latvia Weather past 2 weeks in Riga, Latvia

Now
68 °F

Clear.


Feels Like: 68 °F
Forecast: 46 / 66 °F
Wind: 10 mph from Southeast

Location: Riga Airport

Current Time: Sep 19, 2014 at 4:00:25 PM

Latest Report: Sep 19, 2014 at 3:20 PM


Visibility: 6 mi

Pressure: 30.15 "Hg

Humidity: 49%

Dew point: 48 °F

Location of RigaLocation

Historic Weather in Riga — Graph

°F

Riga temperature yesterday

Maximum temperature yesterday: 68 °F (at 1:50 PM)
Minimum temperature yesterday: 43 °F (at 3:20 AM)
Average temperature yesterday: 55 °F

Past Weeks' High & Low Weather Summary

 TemperatureHumidityPressure
High75 °F (Sep 8, 2:50 PM)100% (Sep 4, 10:20 PM)30.45 "Hg (Sep 4, 10:20 PM)
Low39 °F (Sep 16, 6:20 AM)44% (Sep 6, 3:50 PM)29.89 "Hg (Sep 9, 7:20 PM)
Average58 °F84%30.20 "Hg
* Reported Sep 4 2:20 PM — Sep 19 2:50 PM, Riga, Weather by CustomWeather, © 2014

Note: Actual official high and low records may vary slightly from our data, if they occured in-between our weather recording intervals... More about our weather records

Advertising

Riga weather history for previous 24 hours

 ConditionsComfort  
Time TempWeatherWind HumidityBarometerVisibility
2:50 PM
Sep 19
68 °FPassing clouds.10 mph49%30.15 "HgN/A
2:20 PM66 °FSunny.15 mph52%30.18 "Hg10 mi
1:50 PM66 °FSunny.12 mph52%30.18 "Hg10 mi
1:20 PM64 °FSunny.10 mph56%30.18 "Hg10 mi
12:50 PM64 °FSunny.9 mph60%30.18 "Hg10 mi
12:20 PM63 °FSunny.9 mph59%30.21 "Hg10 mi
11:50 AM61 °FPassing clouds.8 mph63%30.21 "HgN/A
11:20 AM59 °FPassing clouds.8 mph68%30.21 "HgN/A
10:50 AM57 °FSunny.9 mph72%30.21 "Hg10 mi
10:20 AM55 °FSunny.8 mph72%30.21 "Hg10 mi
9:50 AM54 °FSunny.9 mph77%30.21 "Hg10 mi
9:20 AM52 °FSunny.5 mph82%30.21 "Hg10 mi
8:50 AM50 °FPassing clouds.3 mph88%30.21 "HgN/A
8:20 AM48 °FSunny.2 mph87%30.21 "Hg10 mi
7:50 AM46 °FFog.3 mph93%30.21 "HgN/A
7:20 AM46 °FFog.2 mph93%30.21 "HgN/A
6:50 AM45 °FFog.2 mph93%30.21 "HgN/A
6:20 AM45 °FFog.1 mph100%30.21 "HgN/A
5:50 AM45 °FFog.2 mph100%30.21 "HgN/A
5:20 AM45 °FFog.1 mph100%30.21 "HgN/A
4:50 AM45 °FFog.2 mph100%30.21 "HgN/A
4:20 AM45 °FFog.No wind100%30.24 "HgN/A
3:50 AM46 °FFog.No wind93%30.24 "HgN/A
3:20 AM48 °FFog.1 mph94%30.24 "HgN/A
2:50 AM46 °FFog.No wind93%30.24 "HgN/A
2:20 AM46 °FFog.1 mph93%30.24 "HgN/A
1:50 AM48 °FFog.1 mph94%30.24 "HgN/A
1:20 AM48 °FFog.1 mph94%30.24 "HgN/A
12:50 AM48 °FFog.1 mph94%30.24 "HgN/A
12:20 AM48 °FFog.1 mph100%30.24 "HgN/A
11:50 PM
Sep 18
50 °FFog.No wind94%30.24 "HgN/A
11:20 PM50 °FFog.No wind94%30.24 "HgN/A
10:20 PM50 °FFog.No wind94%30.24 "HgN/A
9:50 PM50 °FFog.No wind94%30.24 "HgN/A
9:20 PM52 °FClear.No wind88%30.24 "Hg10 mi
8:50 PM54 °FClear.1 mph88%30.24 "Hg10 mi
8:20 PM54 °FSunny.2 mph94%30.24 "Hg10 mi
7:50 PM55 °FSunny.1 mph88%30.24 "Hg10 mi
7:20 PM64 °FSunny.5 mph60%30.24 "Hg10 mi
6:50 PM66 °FSunny.3 mph56%30.24 "Hg10 mi
6:20 PM66 °FSunny.5 mph52%30.24 "Hg10 mi
5:50 PM68 °FSunny.7 mph49%30.24 "Hg10 mi
5:20 PM68 °FSunny.7 mph46%30.24 "Hg10 mi
4:50 PM68 °FPassing clouds.8 mph49%30.24 "HgN/A
4:20 PM68 °FPassing clouds.9 mph49%30.27 "HgN/A
Weather by CustomWeather, © 2014

See weather overviewHow to use our weather pages